| time (UTC) | temp F | wind direction | speed MPH | gust MPH | rain 1hr in | rain 24hr in | rain mn in | humidity % | barometer mb |
| 20260509170518 | 66 | 242 | 1.0 | 3.0 | 0.00 | 0.00 | 0.00 | 75 | 1014.2 |
| 20260509170030 | 66 | 242 | 1.0 | 3.0 | 0.00 | 0.00 | 0.00 | 75 | 1014.2 |
| 20260509165517 | 67 | 242 | 1.0 | 3.0 | 0.00 | 0.00 | 0.00 | 74 | 1014.2 |
| 20260509165015 | 68 | 242 | 2.0 | 3.0 | 0.00 | 0.00 | 0.00 | 73 | 1014.2 |
| 20260509164521 | 68 | 241 | 2.0 | 3.0 | 0.00 | 0.00 | 0.00 | 71 | 1014.2 |
| 20260509164020 | 69 | 241 | 2.0 | 3.0 | 0.00 | 0.00 | 0.00 | 70 | 1014.1 |
| 20260509163542 | 69 | 241 | 2.0 | 5.0 | 0.00 | 0.00 | 0.00 | 69 | 1014.0 |
| 20260509163012 | 69 | 241 | 3.0 | 5.0 | 0.00 | 0.00 | 0.00 | 63 | 1014.1 |
| 20260509162535 | 70 | 246 | 2.0 | 5.0 | 0.00 | 0.00 | 0.00 | 69 | 1014.0 |
| 20260509162014 | 70 | 248 | 2.0 | 4.0 | 0.00 | 0.00 | 0.00 | 67 | 1014.0 |
| 20260509161516 | 70 | 250 | 3.0 | 5.0 | 0.00 | 0.00 | 0.00 | 67 | 1014.1 |
| 20260509161038 | 70 | 248 | 3.0 | 5.0 | 0.00 | 0.00 | 0.00 | 66 | 1014.1 |
| 20260509160521 | 70 | 245 | 2.0 | 4.0 | 0.00 | 0.00 | 0.00 | 64 | 1014.1 |
| 20260509160014 | 70 | 244 | 2.0 | 4.0 | 0.00 | 0.00 | 0.00 | 67 | 1014.1 |
| 20260509155519 | 70 | 241 | 3.0 | 4.0 | 0.00 | 0.00 | 0.00 | 68 | 1014.0 |
| 20260509155020 | 71 | 244 | 2.0 | 5.0 | 0.00 | 0.00 | 0.00 | 66 | 1014.1 |
| 20260509154546 | 71 | 237 | 3.0 | 6.0 | 0.00 | 0.00 | 0.00 | 67 | 1014.1 |
| 20260509154025 | 71 | 240 | 2.0 | 6.0 | 0.00 | 0.00 | 0.00 | 66 | 1014.1 |
| 20260509153528 | 72 | 237 | 1.0 | 3.0 | 0.00 | 0.00 | 0.00 | 66 | 1014.1 |
| 20260509153020 | 73 | 237 | 1.0 | 3.0 | 0.00 | 0.00 | 0.00 | 61 | 1014.2 |
| 20260509152528 | 74 | 237 | 1.0 | 3.0 | 0.00 | 0.00 | 0.00 | 59 | 1014.2 |
| 20260509152049 | 75 | 236 | 1.0 | 5.0 | 0.00 | 0.00 | 0.00 | 57 | 1014.3 |
| 20260509151530 | 76 | 238 | 2.0 | 8.0 | 0.00 | 0.00 | 0.00 | 53 | 1014.3 |
| 20260509151028 | 76 | 223 | 3.0 | 8.0 | 0.00 | 0.00 | 0.00 | 52 | 1014.2 |
| 20260509150512 | 77 | 215 | 1.0 | 8.0 | 0.00 | 0.00 | 0.00 | 48 | 1014.2 |
| 20260509150026 | 77 | 204 | 5.0 | 9.0 | 0.00 | 0.00 | 0.00 | 47 | 1014.1 |
| 20260509145530 | 77 | 263 | 2.0 | 7.0 | 0.00 | 0.00 | 0.00 | 50 | 1014.1 |
| 20260509145031 | 77 | 215 | 2.0 | 6.0 | 0.00 | 0.00 | 0.00 | 50 | 1014.2 |
| 20260509144515 | 77 | 193 | 3.0 | 7.0 | 0.00 | 0.00 | 0.00 | 48 | 1014.2 |
| 20260509144016 | 78 | 211 | 4.0 | 9.0 | 0.00 | 0.00 | 0.00 | 45 | 1014.2 |
| 20260509143519 | 79 | 217 | 4.0 | 9.0 | 0.00 | 0.00 | 0.00 | 44 | 1014.2 |
| 20260509143012 | 79 | 214 | 2.0 | 8.0 | 0.00 | 0.00 | 0.00 | 44 | 1014.2 |
| 20260509142537 | 79 | 194 | 4.0 | 8.0 | 0.00 | 0.00 | 0.00 | 42 | 1014.2 |
| 20260509142016 | 79 | 215 | 3.0 | 9.0 | 0.00 | 0.00 | 0.00 | 43 | 1014.2 |
| 20260509141517 | 79 | 251 | 4.0 | 9.0 | 0.00 | 0.00 | 0.00 | 43 | 1014.2 |
| 20260509141021 | 79 | 211 | 3.0 | 8.0 | 0.00 | 0.00 | 0.00 | 44 | 1014.1 |
| 20260509140523 | 79 | 195 | 2.0 | 6.0 | 0.00 | 0.00 | 0.00 | 44 | 1014.1 |
| 20260509140014 | 79 | 215 | 2.0 | 6.0 | 0.00 | 0.00 | 0.00 | 45 | 1014.1 |
| 20260509135519 | 79 | 195 | 2.0 | 6.0 | 0.00 | 0.00 | 0.00 | 43 | 1014.1 |
| 20260509135018 | 79 | 178 | 3.0 | 8.0 | 0.00 | 0.00 | 0.00 | 42 | 1014.1 |
| 20260509134520 | 79 | 196 | 5.0 | 8.0 | 0.00 | 0.00 | 0.00 | 42 | 1014.2 |
| 20260509134020 | 79 | 208 | 3.0 | 10.0 | 0.00 | 0.00 | 0.00 | 43 | 1014.2 |
| 20260509133524 | 79 | 175 | 5.0 | 10.0 | 0.00 | 0.00 | 0.00 | 40 | 1014.2 |
| 20260509133015 | 79 | 197 | 4.0 | 6.0 | 0.00 | 0.00 | 0.00 | 42 | 1014.2 |
| 20260509132520 | 79 | 225 | 3.0 | 6.0 | 0.00 | 0.00 | 0.00 | 41 | 1014.2 |
| 20260509132019 | 79 | 317 | 1.0 | 6.0 | 0.00 | 0.00 | 0.00 | 40 | 1014.2 |
| 20260509131523 | 79 | 238 | 3.0 | 6.0 | 0.00 | 0.00 | 0.00 | 38 | 1014.2 |
| 20260509131023 | 80 | 207 | 3.0 | 7.0 | 0.00 | 0.00 | 0.00 | 41 | 1014.3 |
| 20260509130527 | 80 | 238 | 3.0 | 8.0 | 0.00 | 0.00 | 0.00 | 39 | 1014.3 |
| 20260509130019 | 79 | 188 | 2.0 | 6.0 | 0.00 | 0.00 | 0.00 | 43 | 1014.2 |
| 20260509125526 | 79 | 194 | 2.0 | 6.0 | 0.00 | 0.00 | 0.00 | 41 | 1014.3 |
| 20260509125027 | 78 | 224 | 4.0 | 8.0 | 0.00 | 0.00 | 0.00 | 38 | 1014.4 |
| 20260509124529 | 79 | 230 | 4.0 | 8.0 | 0.00 | 0.00 | 0.00 | 37 | 1014.5 |
| 20260509124030 | 79 | 209 | 1.0 | 4.0 | 0.00 | 0.00 | 0.00 | 40 | 1014.5 |
| 20260509123533 | 79 | 213 | 2.0 | 6.0 | 0.00 | 0.00 | 0.00 | 40 | 1014.5 |
| 20260509123024 | 79 | 146 | 3.0 | 5.0 | 0.00 | 0.00 | 0.00 | 39 | 1014.6 |
| 20260509122524 | 78 | 209 | 3.0 | 6.0 | 0.00 | 0.00 | 0.00 | 41 | 1014.7 |
| 20260509122022 | 79 | 223 | 3.0 | 7.0 | 0.00 | 0.00 | 0.00 | 40 | 1014.7 |
| 20260509121526 | 78 | 311 | 2.0 | 7.0 | 0.00 | 0.00 | 0.00 | 40 | 1014.8 |
| 20260509121028 | 78 | 190 | 2.0 | 6.0 | 0.00 | 0.00 | 0.00 | 41 | 1014.9 |
| 20260509120511 | 78 | 219 | 3.0 | 10.0 | 0.00 | 0.00 | 0.00 | 35 | 1015.0 |
| 20260509120023 | 78 | 217 | 4.0 | 10.0 | 0.00 | 0.00 | 0.00 | 42 | 1015.0 |
| 20260509115526 | 78 | 215 | 3.0 | 9.0 | 0.00 | 0.00 | 0.00 | 42 | 1015.0 |
| 20260509115025 | 78 | 205 | 3.0 | 8.0 | 0.00 | 0.00 | 0.00 | 44 | 1015.1 |
| 20260509114526 | 77 | 203 | 2.0 | 7.0 | 0.00 | 0.00 | 0.00 | 45 | 1015.1 |
| 20260509114027 | 77 | 220 | 4.0 | 7.0 | 0.00 | 0.00 | 0.00 | 45 | 1015.1 |
| 20260509113514 | 77 | 209 | 3.0 | 8.0 | 0.00 | 0.00 | 0.00 | 48 | 1015.2 |
| 20260509113026 | 77 | 214 | 2.0 | 10.0 | 0.00 | 0.00 | 0.00 | 43 | 1015.1 |
| 20260509112530 | 78 | 236 | 5.0 | 10.0 | 0.00 | 0.00 | 0.00 | 45 | 1015.2 |
| 20260509112029 | 77 | 198 | 5.0 | 10.0 | 0.00 | 0.00 | 0.00 | 49 | 1015.3 |
| 20260509111513 | 77 | 206 | 2.0 | 9.0 | 0.00 | 0.00 | 0.00 | 47 | 1015.3 |
| 20260509111015 | 77 | 216 | 5.0 | 9.0 | 0.00 | 0.00 | 0.00 | 47 | 1015.5 |
| 20260509110517 | 77 | 184 | 3.0 | 8.0 | 0.00 | 0.00 | 0.00 | 49 | 1015.4 |
| 20260509110051 | 77 | 189 | 3.0 | 8.0 | 0.00 | 0.00 | 0.00 | 49 | 1015.5 |
| 20260509105531 | 77 | 202 | 5.0 | 7.0 | 0.00 | 0.00 | 0.00 | 48 | 1015.6 |
| 20260509105032 | 77 | 215 | 4.0 | 7.0 | 0.00 | 0.00 | 0.00 | 49 | 1015.6 |
| 20260509104514 | 77 | 186 | 4.0 | 7.0 | 0.00 | 0.00 | 0.00 | 50 | 1015.6 |
| 20260509104015 | 76 | 191 | 3.0 | 7.0 | 0.00 | 0.00 | 0.00 | 48 | 1015.7 |
| 20260509103518 | 76 | 213 | 3.0 | 7.0 | 0.00 | 0.00 | 0.00 | 49 | 1015.8 |
| 20260509103049 | 76 | 203 | 4.0 | 7.0 | 0.00 | 0.00 | 0.00 | 49 | 1015.8 |
| 20260509102513 | 76 | 217 | 3.0 | 8.0 | 0.00 | 0.00 | 0.00 | 49 | 1015.8 |
| 20260509102013 | 76 | 213 | 4.0 | 9.0 | 0.00 | 0.00 | 0.00 | 54 | 1015.9 |
| 20260509101521 | 76 | 211 | 4.0 | 9.0 | 0.00 | 0.00 | 0.00 | 51 | 1016.0 |
| 20260509101020 | 76 | 196 | 6.0 | 9.0 | 0.00 | 0.00 | 0.00 | 52 | 1016.0 |
| 20260509100542 | 76 | 214 | 4.0 | 10.0 | 0.00 | 0.00 | 0.00 | 53 | 1015.9 |
| 20260509100012 | 75 | 219 | 2.0 | 9.0 | 0.00 | 0.00 | 0.00 | 52 | 1015.9 |
| 20260509095517 | 75 | 203 | 4.0 | 9.0 | 0.00 | 0.00 | 0.00 | 52 | 1015.9 |
| 20260509095017 | 75 | 204 | 3.0 | 8.0 | 0.00 | 0.00 | 0.00 | 56 | 1015.9 |
| 20260509094521 | 75 | 196 | 2.0 | 10.0 | 0.00 | 0.00 | 0.00 | 54 | 1015.9 |
| 20260509094041 | 75 | 204 | 4.0 | 8.0 | 0.00 | 0.00 | 0.00 | 54 | 1015.9 |
| 20260509093522 | 75 | 205 | 4.0 | 10.0 | 0.00 | 0.00 | 0.00 | 57 | 1015.9 |
| 20260509093013 | 75 | 204 | 6.0 | 10.0 | 0.00 | 0.00 | 0.00 | 56 | 1015.9 |
| 20260509092516 | 75 | 202 | 5.0 | 8.0 | 0.00 | 0.00 | 0.00 | 55 | 1015.9 |
| 20260509092015 | 75 | 205 | 3.0 | 6.0 | 0.00 | 0.00 | 0.00 | 58 | 1015.9 |
| 20260509091517 | 75 | 200 | 3.0 | 7.0 | 0.00 | 0.00 | 0.00 | 61 | 1015.9 |
| 20260509091037 | 75 | 219 | 4.0 | 7.0 | 0.00 | 0.00 | 0.00 | 60 | 1015.9 |
| 20260509090520 | 75 | 138 | 2.0 | 4.0 | 0.00 | 0.00 | 0.00 | 60 | 1015.8 |
| 20260509090034 | 75 | 101 | 2.0 | 3.0 | 0.00 | 0.00 | 0.00 | 59 | 1015.8 |
| 20260509085517 | 74 | 78 | 2.0 | 3.0 | 0.00 | 0.00 | 0.00 | 65 | 1015.8 |
| 20260509085018 | 73 | 63 | 1.0 | 3.0 | 0.00 | 0.00 | 0.00 | 62 | 1015.9 |
| 20260509084542 | 72 | 60 | 1.0 | 4.0 | 0.00 | 0.00 | 0.00 | 61 | 1016.0 |
| 20260509084021 | 72 | 53 | 2.0 | 4.0 | 0.00 | 0.00 | 0.00 | 63 | 1016.0 |
| 20260509083521 | 71 | 51 | 1.0 | 4.0 | 0.00 | 0.00 | 0.00 | 62 | 1016.0 |
| 20260509083016 | 71 | 50 | 2.0 | 4.0 | 0.00 | 0.00 | 0.00 | 65 | 1016.0 |
| 20260509082518 | 70 | 44 | 3.0 | 5.0 | 0.00 | 0.00 | 0.00 | 66 | 1015.9 |
| 20260509082017 | 70 | 49 | 3.0 | 5.0 | 0.00 | 0.00 | 0.00 | 66 | 1016.0 |
| 20260509081519 | 70 | 48 | 3.0 | 5.0 | 0.00 | 0.00 | 0.00 | 67 | 1016.1 |
| 20260509081020 | 69 | 49 | 3.0 | 6.0 | 0.00 | 0.00 | 0.00 | 67 | 1016.1 |
| 20260509080524 | 69 | 64 | 2.0 | 6.0 | 0.00 | 0.00 | 0.00 | 67 | 1016.2 |
| 20260509080016 | 69 | 54 | 3.0 | 5.0 | 0.00 | 0.00 | 0.00 | 67 | 1016.2 |
| 20260509075519 | 69 | 56 | 3.0 | 6.0 | 0.00 | 0.00 | 0.00 | 69 | 1016.3 |
| 20260509075016 | 68 | 59 | 3.0 | 6.0 | 0.00 | 0.00 | 0.00 | 69 | 1016.3 |
| 20260509074539 | 68 | 65 | 1.0 | 4.0 | 0.00 | 0.00 | 0.00 | 70 | 1016.4 |
| 20260509074019 | 67 | 66 | 2.0 | 5.0 | 0.00 | 0.00 | 0.00 | 70 | 1016.4 |
| 20260509073542 | 67 | 69 | 2.0 | 4.0 | 0.00 | 0.00 | 0.00 | 71 | 1016.5 |
| 20260509073056 | 66 | 74 | 1.0 | 3.0 | 0.00 | 0.00 | 0.00 | 71 | 1016.5 |
| 20260509073014 | 66 | 74 | 1.0 | 3.0 | 0.00 | 0.00 | 0.00 | 71 | 1016.5 |
| 20260509072515 | 66 | 74 | 1.0 | 5.0 | 0.00 | 0.00 | 0.00 | 72 | 1016.6 |
| 20260509072014 | 65 | 74 | 3.0 | 5.0 | 0.00 | 0.00 | 0.00 | 73 | 1016.6 |
| 20260509071536 | 65 | 83 | 2.0 | 4.0 | 0.00 | 0.00 | 0.00 | 74 | 1016.6 |
| 20260509071016 | 64 | 88 | 2.0 | 7.0 | 0.00 | 0.00 | 0.00 | 74 | 1016.6 |
| 20260509070520 | 64 | 89 | 3.0 | 7.0 | 0.00 | 0.00 | 0.00 | 74 | 1016.7 |
| 20260509070031 | 64 | 97 | 4.0 | 6.0 | 0.00 | 0.00 | 0.00 | 75 | 1016.7 |
| 20260509065534 | 64 | 108 | 3.0 | 6.0 | 0.00 | 0.00 | 0.00 | 76 | 1016.7 |
| 20260509065013 | 64 | 116 | 3.0 | 6.0 | 0.00 | 0.00 | 0.00 | 76 | 1016.7 |
| 20260509064515 | 63 | 125 | 2.0 | 4.0 | 0.00 | 0.00 | 0.00 | 77 | 1016.7 |
| 20260509064019 | 63 | 126 | 1.0 | 3.0 | 0.00 | 0.00 | 0.00 | 79 | 1016.7 |
| 20260509063523 | 62 | 126 | 2.0 | 3.0 | 0.00 | 0.00 | 0.00 | 80 | 1016.8 |
| 20260509063015 | 61 | 126 | 2.0 | 4.0 | 0.00 | 0.00 | 0.00 | 81 | 1016.7 |
| 20260509062538 | 61 | 126 | 3.0 | 5.0 | 0.00 | 0.00 | 0.00 | 82 | 1016.7 |
| 20260509062019 | 61 | 128 | 3.0 | 5.0 | 0.00 | 0.00 | 0.00 | 82 | 1016.8 |
| 20260509061524 | 60 | 134 | 3.0 | 4.0 | 0.00 | 0.00 | 0.00 | 82 | 1016.9 |
| 20260509061025 | 60 | 148 | 2.0 | 5.0 | 0.00 | 0.00 | 0.00 | 83 | 1016.8 |
| 20260509060528 | 60 | 162 | 4.0 | 5.0 | 0.00 | 0.00 | 0.00 | 84 | 1016.9 |
| 20260509060019 | 59 | 183 | 3.0 | 5.0 | 0.00 | 0.00 | 0.00 | 84 | 1016.9 |
| 20260509055522 | 59 | 209 | 2.0 | 5.0 | 0.00 | 0.00 | 0.00 | 84 | 1017.0 |
| 20260509055020 | 59 | 213 | 3.0 | 5.0 | 0.00 | 0.00 | 0.00 | 85 | 1017.0 |
| 20260509054522 | 59 | 218 | 2.0 | 4.0 | 0.00 | 0.00 | 0.00 | 85 | 1017.1 |
| 20260509054042 | 58 | 219 | 2.0 | 4.0 | 0.00 | 0.00 | 0.00 | 86 | 1017.0 |
| 20260509053523 | 58 | 219 | 1.0 | 3.0 | 0.00 | 0.00 | 0.00 | 88 | 1017.0 |
| 20260509053036 | 57 | 220 | 1.0 | 5.0 | 0.00 | 0.00 | 0.00 | 88 | 1017.0 |
| 20260509052520 | 57 | 220 | 3.0 | 5.0 | 0.00 | 0.00 | 0.00 | 89 | 1017.0 |
| 20260509052025 | 56 | 221 | 3.0 | 4.0 | 0.00 | 0.00 | 0.00 | 91 | 1017.0 |
| 20260509051530 | 56 | 221 | 2.0 | 4.0 | 0.00 | 0.00 | 0.00 | 91 | 1017.0 |
| 20260509051031 | 55 | 221 | 3.0 | 4.0 | 0.00 | 0.00 | 0.00 | 92 | 1016.9 |
| 20260509050534 | 55 | 221 | 2.0 | 3.0 | 0.00 | 0.00 | 0.00 | 93 | 1016.9 |
| 20260509050026 | 54 | 221 | 0.0 | 2.0 | 0.00 | 0.00 | 0.00 | 94 | 1016.8 |
| 20260509045531 | 54 | 221 | 0.0 | 2.0 | 0.00 | 0.00 | 0.00 | 94 | 1016.8 |
| 20260509045013 | 53 | 221 | 1.0 | 2.0 | 0.00 | 0.00 | 0.00 | 94 | 1016.8 |
| 20260509044537 | 53 | 221 | 1.0 | 2.0 | 0.00 | 0.00 | 0.00 | 95 | 1016.8 |
| 20260509044016 | 52 | 221 | 0.0 | 2.0 | 0.00 | 0.00 | 0.00 | 94 | 1016.8 |
| 20260509043520 | 51 | 221 | 0.0 | 1.0 | 0.00 | 0.00 | 0.00 | 94 | 1016.8 |
| 20260509043013 | 51 | 221 | 0.0 | 1.0 | 0.00 | 0.00 | 0.00 | 93 | 1016.8 |
| 20260509042517 | 51 | 221 | 0.0 | 0.0 | 0.00 | 0.00 | 0.00 | 93 | 1016.8 |
| 20260509042019 | 51 | 221 | 0.0 | 0.0 | 0.00 | 0.00 | 0.00 | 93 | 1016.8 |
| 20260509041520 | 51 | 221 | 0.0 | 0.0 | 0.00 | 0.00 | 0.00 | 93 | 1016.7 |
| 20260509041021 | 51 | 221 | 0.0 | 0.0 | 0.00 | 0.00 | 0.00 | 92 | 1016.7 |
| 20260509040529 | 51 | 221 | 0.0 | 0.0 | 0.00 | 0.00 | 0.00 | 92 | 1016.6 |
| 20260509040021 | 51 | 221 | 0.0 | 0.0 | 0.00 | 0.00 | 0.00 | 92 | 1016.6 |
| 20260509035524 | 51 | 221 | 0.0 | 0.0 | 0.00 | 0.00 | 0.00 | 92 | 1016.5 |
| 20260509035025 | 51 | 221 | 0.0 | 0.0 | 0.00 | 0.00 | 0.00 | 92 | 1016.5 |
| 20260509034529 | 51 | 221 | 0.0 | 0.0 | 0.00 | 0.00 | 0.00 | 92 | 1016.5 |
| 20260509034047 | 51 | 221 | 0.0 | 0.0 | 0.00 | 0.00 | 0.00 | 92 | 1016.5 |
| 20260509033548 | 51 | 221 | 0.0 | 1.0 | 0.00 | 0.00 | 0.00 | 92 | 1016.6 |
| 20260509033019 | 51 | 221 | 0.0 | 1.0 | 0.00 | 0.00 | 0.00 | 92 | 1016.5 |
| 20260509032521 | 51 | 221 | 0.0 | 1.0 | 0.00 | 0.00 | 0.00 | 92 | 1016.5 |
| 20260509032040 | 51 | 221 | 0.0 | 1.0 | 0.00 | 0.00 | 0.00 | 92 | 1016.5 |
| 20260509031522 | 51 | 221 | 0.0 | 1.0 | 0.00 | 0.00 | 0.00 | 92 | 1016.5 |
| 20260509031023 | 52 | 221 | 0.0 | 1.0 | 0.00 | 0.00 | 0.00 | 92 | 1016.5 |
| 20260509030547 | 52 | 221 | 0.0 | 1.0 | 0.00 | 0.00 | 0.00 | 92 | 1016.5 |
| 20260509030017 | 52 | 221 | 1.0 | 1.0 | 0.00 | 0.00 | 0.00 | 92 | 1016.5 |
| 20260509025520 | 52 | 221 | 0.0 | 0.0 | 0.00 | 0.00 | 0.00 | 92 | 1016.6 |
| 20260509025021 | 52 | 221 | 0.0 | 0.0 | 0.00 | 0.00 | 0.00 | 92 | 1016.5 |
| 20260509024524 | 52 | 221 | 0.0 | 0.0 | 0.00 | 0.00 | 0.00 | 92 | 1016.5 |
| 20260509024024 | 53 | 221 | 0.0 | 2.0 | 0.00 | 0.00 | 0.00 | 92 | 1016.5 |
| 20260509023512 | 53 | 221 | 0.0 | 2.0 | 0.00 | 0.00 | 0.00 | 92 | 1016.5 |
| 20260509023025 | 53 | 221 | 1.0 | 3.0 | 0.00 | 0.00 | 0.00 | 92 | 1016.5 |
| 20260509022528 | 53 | 221 | 1.0 | 3.0 | 0.00 | 0.00 | 0.00 | 92 | 1016.4 |
| 20260509022026 | 53 | 221 | 0.0 | 2.0 | 0.00 | 0.00 | 0.00 | 92 | 1016.4 |
| 20260509021531 | 53 | 221 | 0.0 | 1.0 | 0.00 | 0.00 | 0.00 | 92 | 1016.4 |
| 20260509021032 | 53 | 221 | 0.0 | 2.0 | 0.00 | 0.00 | 0.00 | 92 | 1016.3 |
| 20260509020536 | 53 | 221 | 0.0 | 2.0 | 0.00 | 0.00 | 0.00 | 92 | 1016.4 |
| 20260509020028 | 53 | 221 | 1.0 | 2.0 | 0.00 | 0.00 | 0.00 | 92 | 1016.3 |
| 20260509015532 | 54 | 221 | 0.0 | 1.0 | 0.00 | 0.00 | 0.00 | 92 | 1016.3 |
| 20260509015013 | 53 | 221 | 0.0 | 2.0 | 0.00 | 0.00 | 0.00 | 92 | 1016.4 |
| 20260509014517 | 53 | 221 | 1.0 | 2.0 | 0.00 | 0.00 | 0.00 | 91 | 1016.3 |
| 20260509014018 | 54 | 221 | 2.0 | 4.0 | 0.00 | 0.00 | 0.00 | 92 | 1016.3 |
| 20260509013523 | 54 | 221 | 1.0 | 4.0 | 0.00 | 0.00 | 0.00 | 92 | 1016.3 |
| 20260509013014 | 54 | 221 | 1.0 | 3.0 | 0.00 | 0.00 | 0.00 | 92 | 1016.3 |
| 20260509012516 | 54 | 221 | 0.0 | 2.0 | 0.00 | 0.00 | 0.00 | 91 | 1016.3 |
| 20260509012019 | 54 | 221 | 0.0 | 3.0 | 0.00 | 0.00 | 0.00 | 91 | 1016.3 |
| 20260509011521 | 54 | 221 | 2.0 | 3.0 | 0.00 | 0.00 | 0.00 | 91 | 1016.3 |
| 20260509011018 | 54 | 221 | 1.0 | 3.0 | 0.00 | 0.00 | 0.00 | 91 | 1016.3 |
| 20260509010521 | 54 | 221 | 1.0 | 2.0 | 0.00 | 0.00 | 0.00 | 91 | 1016.4 |
| 20260509010032 | 54 | 221 | 0.0 | 2.0 | 0.00 | 0.00 | 0.00 | 91 | 1016.4 |
| 20260509005513 | 54 | 221 | 0.0 | 2.0 | 0.00 | 0.00 | 0.00 | 91 | 1016.4 |
| 20260509005054 | 54 | 221 | 0.0 | 2.0 | 0.00 | 0.00 | 0.00 | 91 | 1016.4 |
| 20260509004515 | 54 | 221 | 0.0 | 2.0 | 0.00 | 0.00 | 0.00 | 90 | 1016.4 |
| 20260509004013 | 54 | 221 | 1.0 | 2.0 | 0.00 | 0.00 | 0.00 | 90 | 1016.4 |
| 20260509003516 | 54 | 221 | 1.0 | 2.0 | 0.00 | 0.00 | 0.00 | 90 | 1016.5 |
| 20260509003027 | 54 | 221 | 1.0 | 2.0 | 0.00 | 0.00 | 0.00 | 90 | 1016.5 |
| 20260509002530 | 55 | 221 | 0.0 | 0.0 | 0.00 | 0.00 | 0.00 | 90 | 1016.5 |
| 20260509002029 | 55 | 221 | 0.0 | 1.0 | 0.00 | 0.00 | 0.00 | 90 | 1016.5 |
| 20260509001553 | 55 | 221 | 0.0 | 1.0 | 0.00 | 0.00 | 0.00 | 90 | 1016.5 |
| 20260509001032 | 55 | 221 | 0.0 | 1.0 | 0.00 | 0.00 | 0.00 | 90 | 1016.5 |
| 20260509000514 | 55 | 221 | 0.0 | 1.0 | 0.00 | 0.00 | 0.00 | 89 | 1016.6 |
| 20260509000026 | 55 | 221 | 0.0 | 0.0 | 0.00 | 0.00 | 0.00 | 89 | 1016.6 |
| 20260508235514 | 55 | 221 | 0.0 | 0.0 | 0.00 | 0.00 | 0.00 | 89 | 1016.6 |
| 20260508235015 | 55 | 221 | 0.0 | 1.0 | 0.00 | 0.00 | 0.00 | 89 | 1016.6 |
| 20260508234518 | 55 | 221 | 0.0 | 3.0 | 0.00 | 0.00 | 0.00 | 89 | 1016.6 |
| 20260508234017 | 55 | 221 | 1.0 | 3.0 | 0.00 | 0.00 | 0.00 | 89 | 1016.7 |
| 20260508233526 | 56 | 221 | 1.0 | 4.0 | 0.00 | 0.00 | 0.00 | 89 | 1016.7 |
| 20260508233017 | 56 | 221 | 1.0 | 4.0 | 0.00 | 0.00 | 0.00 | 88 | 1016.7 |
| 20260508232521 | 56 | 221 | 0.0 | 1.0 | 0.00 | 0.00 | 0.00 | 88 | 1016.8 |
| 20260508232022 | 56 | 221 | 0.0 | 1.0 | 0.00 | 0.00 | 0.00 | 88 | 1016.7 |
| 20260508231526 | 56 | 221 | 0.0 | 1.0 | 0.00 | 0.00 | 0.00 | 88 | 1016.7 |
| 20260508231025 | 56 | 221 | 0.0 | 0.0 | 0.00 | 0.00 | 0.00 | 88 | 1016.7 |
| 20260508230550 | 56 | 221 | 0.0 | 0.0 | 0.00 | 0.00 | 0.00 | 88 | 1016.7 |
| 20260508230022 | 56 | 221 | 0.0 | 1.0 | 0.00 | 0.00 | 0.00 | 88 | 1016.8 |
| 20260508225525 | 57 | 221 | 0.0 | 1.0 | 0.00 | 0.00 | 0.00 | 88 | 1016.8 |
| 20260508225025 | 57 | 221 | 0.0 | 1.0 | 0.00 | 0.00 | 0.00 | 88 | 1016.7 |
| 20260508224528 | 57 | 221 | 0.0 | 0.0 | 0.00 | 0.00 | 0.00 | 88 | 1016.7 |
| 20260508224029 | 57 | 221 | 0.0 | 0.0 | 0.00 | 0.00 | 0.00 | 88 | 1016.6 |
| 20260508223536 | 57 | 221 | 0.0 | 0.0 | 0.00 | 0.00 | 0.00 | 88 | 1016.7 |
| 20260508223025 | 57 | 221 | 0.0 | 2.0 | 0.00 | 0.00 | 0.00 | 88 | 1016.7 |
| 20260508222530 | 57 | 221 | 0.0 | 2.0 | 0.00 | 0.00 | 0.00 | 88 | 1016.6 |
| 20260508222030 | 57 | 221 | 0.0 | 0.0 | 0.00 | 0.00 | 0.00 | 88 | 1016.6 |
| 20260508221535 | 57 | 221 | 0.0 | 0.0 | 0.00 | 0.00 | 0.00 | 87 | 1016.7 |
| 20260508221035 | 57 | 221 | 0.0 | 0.0 | 0.00 | 0.00 | 0.00 | 87 | 1016.6 |
| 20260508220516 | 57 | 221 | 0.0 | 1.0 | 0.00 | 0.00 | 0.00 | 87 | 1016.6 |
| 20260508220028 | 57 | 221 | 0.0 | 2.0 | 0.00 | 0.00 | 0.00 | 87 | 1016.6 |
| 20260508215528 | 58 | 221 | 0.0 | 2.0 | 0.00 | 0.00 | 0.00 | 87 | 1016.6 |
| 20260508215027 | 58 | 221 | 0.0 | 2.0 | 0.00 | 0.00 | 0.00 | 87 | 1016.5 |
| 20260508214530 | 58 | 221 | 1.0 | 2.0 | 0.00 | 0.00 | 0.00 | 87 | 1016.5 |
| 20260508214029 | 58 | 221 | 0.0 | 1.0 | 0.00 | 0.00 | 0.00 | 87 | 1016.4 |
| 20260508213533 | 58 | 221 | 0.0 | 0.0 | 0.00 | 0.00 | 0.00 | 87 | 1016.4 |
| 20260508213022 | 58 | 221 | 0.0 | 0.0 | 0.00 | 0.00 | 0.00 | 87 | 1016.4 |
| 20260508212524 | 58 | 221 | 0.0 | 0.0 | 0.00 | 0.00 | 0.00 | 87 | 1016.4 |
| 20260508212023 | 58 | 221 | 0.0 | 0.0 | 0.00 | 0.00 | 0.00 | 86 | 1016.3 |
| 20260508211526 | 58 | 221 | 0.0 | 1.0 | 0.00 | 0.00 | 0.00 | 86 | 1016.3 |
| 20260508211046 | 58 | 221 | 0.0 | 1.0 | 0.00 | 0.00 | 0.00 | 86 | 1016.3 |
| 20260508210526 | 58 | 221 | 0.0 | 0.0 | 0.00 | 0.00 | 0.00 | 86 | 1016.3 |
| 20260508210017 | 58 | 221 | 0.0 | 0.0 | 0.00 | 0.00 | 0.00 | 86 | 1016.2 |
| 20260508205541 | 58 | 221 | 0.0 | 0.0 | 0.00 | 0.00 | 0.00 | 86 | 1016.2 |
| 20260508205025 | 58 | 221 | 0.0 | 0.0 | 0.00 | 0.00 | 0.00 | 86 | 1016.2 |
| 20260508204527 | 58 | 221 | 0.0 | 0.0 | 0.00 | 0.00 | 0.00 | 86 | 1016.1 |
| 20260508204025 | 59 | 221 | 0.0 | 0.0 | 0.00 | 0.00 | 0.00 | 85 | 1016.1 |
| 20260508203530 | 59 | 221 | 0.0 | 0.0 | 0.00 | 0.00 | 0.00 | 85 | 1016.1 |
| 20260508203042 | 59 | 221 | 0.0 | 0.0 | 0.00 | 0.00 | 0.00 | 85 | 1016.0 |
| 20260508202525 | 59 | 221 | 0.0 | 0.0 | 0.00 | 0.00 | 0.00 | 85 | 1016.1 |
| 20260508202027 | 59 | 221 | 0.0 | 0.0 | 0.00 | 0.00 | 0.00 | 85 | 1016.0 |
| 20260508201530 | 59 | 221 | 0.0 | 0.0 | 0.00 | 0.00 | 0.00 | 84 | 1016.0 |
| 20260508201028 | 59 | 221 | 0.0 | 1.0 | 0.00 | 0.00 | 0.00 | 84 | 1015.9 |
| 20260508200523 | 59 | 221 | 0.0 | 1.0 | 0.00 | 0.00 | 0.00 | 84 | 1015.8 |
| 20260508200014 | 59 | 221 | 0.0 | 2.0 | 0.00 | 0.00 | 0.00 | 84 | 1015.8 |
| 20260508195516 | 60 | 221 | 0.0 | 1.0 | 0.00 | 0.00 | 0.00 | 83 | 1015.7 |
| 20260508195036 | 60 | 221 | 0.0 | 1.0 | 0.00 | 0.00 | 0.00 | 83 | 1015.6 |
| 20260508194518 | 60 | 221 | 0.0 | 3.0 | 0.00 | 0.00 | 0.00 | 83 | 1015.5 |
| 20260508194017 | 60 | 221 | 1.0 | 3.0 | 0.00 | 0.00 | 0.00 | 83 | 1015.4 |
| 20260508193523 | 60 | 221 | 0.0 | 0.0 | 0.00 | 0.00 | 0.00 | 82 | 1015.3 |
| 20260508193034 | 60 | 221 | 0.0 | 0.0 | 0.00 | 0.00 | 0.00 | 83 | 1015.3 |
| 20260508192515 | 61 | 221 | 0.0 | 0.0 | 0.00 | 0.00 | 0.00 | 82 | 1015.2 |
| 20260508192015 | 61 | 221 | 0.0 | 1.0 | 0.00 | 0.00 | 0.00 | 82 | 1015.1 |
| 20260508191518 | 61 | 221 | 0.0 | 1.0 | 0.00 | 0.00 | 0.00 | 82 | 1015.0 |
| 20260508191015 | 61 | 221 | 0.0 | 0.0 | 0.00 | 0.00 | 0.00 | 81 | 1015.0 |
| 20260508190538 | 61 | 221 | 0.0 | 0.0 | 0.00 | 0.00 | 0.00 | 81 | 1014.9 |
| 20260508190029 | 62 | 221 | 0.0 | 0.0 | 0.00 | 0.00 | 0.00 | 81 | 1014.8 |
| 20260508185512 | 62 | 221 | 0.0 | 0.0 | 0.00 | 0.00 | 0.00 | 81 | 1014.7 |
| 20260508185012 | 62 | 221 | 0.0 | 0.0 | 0.00 | 0.00 | 0.00 | 81 | 1014.6 |
| 20260508184535 | 62 | 221 | 0.0 | 1.0 | 0.00 | 0.00 | 0.00 | 81 | 1014.6 |